Wind_Speed
42 45 43 38 35 37 40 41 42 43 44 44 44 45 45 46 45 42 46 48 47 51 52 49 52 49 43 40 36 33 35 36 34 33 33 34 35 36 38 39 39 38 39 40 41 41 41 41 41 42 42 43 43 44 45 44 45 45 46 46 46 46 46 46 45 45 44 44 43 43 43 44 44 45 46 47 48 48 49 51 52 53 54 54 54 54
43 46 41 34 35 38 40 42 42 43 43 44 44 45 45 45 43 43 46 46 47 52 52 49 52 49 43 40 37 34 35 35 33 34 34 33 35 37 37 37 37 37 39 41 41 40 39 39 41 42 43 44 45 46 46 45 45 47 48 48 48 48 48 47 46 46 45 45 44 44 44 44 45 45 46 47 48 49 50 51 52 53 54 55 55 55
45 44 36 33 36 38 39 41 41 42 42 43 43 44 45 43 42 45 46 45 47 51 51 50 52 49 42 40 37 33 35 36 32 31 33 33 34 36 35 35 36 37 39 41 40 39 39 39 41 43 44 45 47 47 47 46 46 48 50 50 51 50 49 48 46 46 46 46 46 46 46 46 45 45 46 47 47 49 50 51 52 53 53 54 54 55
47 42 34 34 36 37 39 40 40 41 42 43 43 44 44 41 42 46 46 45 46 49 51 50 53 50 42 40 38 32 32 34 32 31 32 31 32 34 34 35 37 37 39 41 40 39 39 41 42 44 46 47 48 48 47 47 48 51 52 52 52 50 48 47 46 47 47 46 46 46 46 47 47 47 48 48 49 50 51 51 52 53 54 54 54 55
48 43 38 37 38 38 41 41 39 41 43 44 43 43 42 41 43 47 47 46 47 49 49 49 54 52 43 40 37 31 30 31 31 33 33 30 30 33 34 36 38 38 38 40 39 38 39 41 43 45 47 48 49 49 49 49 51 53 54 53 52 50 48 47 47 47 46 45 46 46 47 48 48 49 50 50 51 52 52 53 53 54 54 54 55 55
50 46 42 42 41 41 43 43 39 40 43 46 45 41 41 43 45 47 47 47 49 50 49 47 52 53 44 40 36 30 30 30 29 32 33 32 33 34 33 35 38 38 37 37 35 35 38 40 43 44 46 48 49 51 51 52 54 55 54 53 52 50 49 48 47 46 45 45 47 48 48 49 50 51 52 53 53 54 54 55 55 55 55 55 55 55
52 46 44 44 44 43 45 44 41 40 45 49 47 42 42 44 46 47 48 49 50 51 51 50 51 51 46 42 39 35 33 32 30 30 31 33 37 39 37 36 37 35 33 33 32 33 36 39 41 44 46 48 50 52 54 55 56 55 54 53 53 51 50 49 47 45 45 47 49 50 51 52 52 53 53 53 53 54 54 55 55 55 55 55 56 56
51 47 46 46 46 47 47 45 43 43 47 50 48 45 45 46 47 48 49 51 52 52 54 54 51 51 50 46 44 44 41 38 35 32 30 30 35 40 40 37 35 33 31 31 30 31 34 38 40 44 46 48 51 53 56 57 57 56 55 54 53 51 50 48 46 46 47 50 51 52 52 52 53 53 53 52 52 53 53 53 53 53 54 55 56 56
52 49 48 48 48 49 48 46 45 45 47 48 48 48 48 48 49 50 51 53 53 54 56 55 51 52 54 51 51 52 47 42 38 34 33 32 33 38 40 37 32 30 29 28 29 31 34 38 41 45 48 50 53 55 57 58 58 57 56 55 53 50 47 44 45 47 49 51 52 52 51 51 51 52 52 51 51 51 51 52 51 51 52 53 55 56
54 52 50 51 51 49 46 45 45 45 46 48 49 50 49 49 49 50 52 53 53 56 56 53 50 53 56 55 55 56 50 46 42 38 37 35 32 33 38 40 34 29 29 29 30 34 37 40 44 48 51 53 55 57 59 60 59 58 57 54 50 45 42 42 45 49 51 51 51 49 50 50 51 51 50 49 49 50 51 51 51 52 52 53 54 56
54 54 53 52 49 48 47 46 46 46 47 48 49 50 50 50 51 51 54 53 55 57 55 51 50 54 59 58 57 57 55 52 48 43 40 35 30 29 34 42 39 32 32 32 34 37 40 44 48 51 54 55 56 58 60 60 59 57 54 49 43 40 40 43 47 50 51 51 49 49 50 51 50 49 48 49 49 51 52 52 53 53 54 54 55 56
54 54 53 51 49 49 49 48 47 48 49 49 50 51 51 52 53 54 56 56 57 57 55 54 54 56 61 60 58 58 57 56 53 49 42 35 31 29 33 40 40 36 35 35 37 41 44 47 50 52 55 56 57 58 59 58 56 53 48 43 40 40 42 43 47 50 50 50 50 50 50 49 48 48 49 49 50 51 52 53 54 54 54 54 55 57
55 55 53 52 51 50 49 49 50 49 49 50 50 51 51 53 56 57 59 58 57 58 57 57 60 62 64 60 58 58 56 57 57 52 44 36 32 31 34 40 40 37 38 40 42 45 47 50 51 53 55 56 57 58 57 55 52 49 45 41 41 43 43 45 48 49 49 51 51 51 49 48 49 49 49 50 51 52 53 54 55 55 55 55 56 57
57 57 55 53 51 49 49 49 50 50 50 50 50 51 51 53 57 58 59 59 59 60 61 62 65 66 63 59 57 57 55 57 58 52 43 37 35 35 37 37 38 40 43 45 46 47 48 50 51 53 55 57 57 57 55 51 49 47 44 42 43 44 45 46 48 49 50 51 51 50 49 49 50 51 51 52 52 53 54 55 56 56 56 56 57 58
55 56 55 54 52 51 50 48 49 50 51 52 52 52 54 55 56 56 57 59 62 64 64 67 69 66 63 60 58 58 58 59 58 51 44 41 40 39 37 35 38 44 48 49 48 47 48 50 51 54 56 58 58 56 54 51 49 48 46 45 47 46 46 48 49 50 51 51 50 50 50 51 52 52 52 53 54 55 56 57 57 57 56 57 58 59
52 53 54 54 52 52 52 49 49 51 53 56 55 56 58 56 54 55 58 61 64 67 67 69 70 65 62 62 60 61 62 61 60 55 49 46 43 40 37 37 40 43 46 48 48 48 49 50 52 55 57 58 58 56 54 52 51 50 49 49 49 48 47 48 50 51 51 50 50 51 52 53 54 54 54 54 56 57 58 58 58 57 57 58 59 60
52 54 53 53 53 53 53 52 52 53 56 59 59 59 59 56 55 57 60 62 64 68 68 67 67 63 61 61 60 60 62 62 61 58 53 49 44 41 41 40 40 42 44 47 48 49 49 51 53 55 58 58 58 57 55 53 52 51 51 49 49 47 47 49 50 51 50 50 51 53 54 55 56 55 55 56 58 59 60 60 58 58 58 59 60 62
54 57 56 56 56 54 53 53 53 56 59 60 61 61 60 60 60 60 61 63 64 67 67 65 65 64 62 62 61 61 63 63 61 57 53 49 45 44 44 43 44 46 46 47 48 48 49 50 53 56 58 59 58 57 56 55 54 53 51 49 47 46 46 49 50 50 51 52 53 55 56 57 57 57 57 58 59 61 61 60 58 58 59 59 61 63
54 57 57 58 59 57 54 55 57 59 60 59 59 59 60 61 62 61 62 63 63 66 68 66 65 64 63 62 62 62 65 67 63 56 51 47 45 46 46 46 48 47 46 47 48 49 49 51 53 55 58 58 58 58 58 57 56 54 51 49 47 46 46 49 50 50 52 54 55 57 58 59 59 58 59 60 61 62 61 59 58 58 60 61 62 64
51 55 56 56 58 59 57 58 60 59 58 57 58 59 60 61 63 64 64 63 63 65 68 66 66 66 64 62 62 64 66 68 65 57 51 48 48 50 51 51 50 47 46 47 48 48 48 50 52 55 57 58 59 59 60 60 58 55 52 50 47 46 47 50 51 52 54 56 58 59 60 60 60 60 60 61 62 63 61 59 59 59 61 62 63 64
53 57 58 56 57 59 59 57 57 56 57 59 60 61 62 63 64 65 64 63 64 66 65 65 68 69 68 66 66 67 66 68 65 57 52 52 52 53 54 54 51 49 47 47 47 47 47 49 52 55 57 59 61 62 63 61 58 55 53 50 48 48 49 51 52 53 56 58 59 60 61 61 61 61 61 62 63 63 61 60 60 60 62 63 64 65
58 59 59 59 60 61 59 55 54 56 58 61 63 63 63 63 63 66 67 65 65 66 64 65 71 73 70 69 69 69 68 68 67 61 54 51 51 52 53 53 51 49 47 47 47 47 49 51 54 58 60 62 63 63 62 60 57 55 53 50 49 50 52 53 54 55 57 59 60 62 62 61 60 60 62 63 63 63 62 61 61 62 63 64 65 65
61 61 61 63 65 64 61 59 59 61 62 64 66 65 64 64 65 67 68 66 65 67 66 69 77 77 71 69 70 71 69 66 67 65 57 50 48 49 49 50 50 49 47 48 50 50 52 54 58 61 63 63 63 62 61 60 58 56 53 50 51 53 55 56 56 57 59 60 61 63 62 60 59 60 62 63 64 64 63 63 63 63 64 64 65 65
61 62 62 64 64 64 65 67 68 69 70 71 70 68 67 68 68 67 68 68 68 70 71 75 82 80 72 71 71 70 66 63 65 65 57 51 50 49 48 49 50 52 52 53 54 54 56 58 61 63 63 62 62 61 61 61 59 57 53 51 53 56 57 57 57 58 60 61 62 62 61 59 59 61 63 64 65 65 64 64 64 64 64 64 65 66
60 61 61 61 63 64 67 71 73 74 75 74 71 69 69 69 69 69 71 71 73 75 76 79 84 81 74 72 70 66 63 62 61 60 55 53 52 53 53 54 55 57 58 59 60 59 60 61 62 62 61 61 62 62 61 60 58 56 54 53 55 58 58 58 58 59 60 61 62 60 59 59 60 63 65 66 65 65 64 64 64 64 63 63 65 67
62 61 61 62 64 67 69 71 71 71 72 72 71 70 71 70 72 73 73 74 78 80 79 80 83 82 75 71 68 63 60 58 56 55 56 55 54 55 57 58 60 62 62 63 63 63 63 63 62 61 62 63 64 62 61 60 58 56 55 56 58 59 59 58 59 60 60 60 60 59 59 60 62 64 66 66 65 65 65 64 64 63 63 64 66 66
64 64 66 69 72 73 73 70 68 68 71 73 72 72 72 72 72 73 75 78 80 81 81 79 79 80 75 68 65 61 57 55 55 56 57 56 55 56 59 61 63 64 64 63 63 63 64 63 61 61 64 65 65 62 61 61 60 58 57 58 59 59 59 59 60 60 59 59 59 59 60 62 64 66 66 65 65 65 65 64 63 63 63 63 63 63
67 69 70 72 74 75 73 71 68 68 72 74 74 74 74 74 74 74 77 79 78 79 81 76 73 76 74 67 63 60 57 58 59 59 58 56 56 59 63 65 65 64 64 64 64 63 63 62 62 64 66 66 65 63 63 63 62 60 59 59 59 60 60 60 60 59 59 59 59 59 61 63 65 65 64 65 65 66 65 64 63 62 61 60 62 65
67 70 68 68 70 70 69 68 66 66 69 72 74 75 75 74 74 74 77 77 75 78 80 75 72 75 75 69 66 63 61 61 60 58 57 58 59 62 66 67 66 64 64 64 63 61 61 62 63 65 66 66 65 65 65 65 64 62 61 61 61 61 61 60 60 59 60 59 58 59 62 63 63 63 63 64 65 65 65 63 61 60 59 61 65 68
68 71 68 68 71 70 69 68 66 67 68 70 71 72 73 73 72 72 75 74 74 79 80 77 77 78 75 70 68 65 62 60 59 58 60 62 64 64 65 66 64 62 61 61 60 59 59 61 63 65 65 64 64 65 65 66 66 65 63 63 63 62 61 61 60 60 59 58 58 60 61 61 61 62 62 64 65 65 64 61 60 61 63 66 69 70
67 69 68 68 72 74 72 71 70 69 70 71 70 70 71 72 71 73 75 75 77 81 79 77 80 80 74 68 66 64 61 60 60 59 58 59 59 60 61 62 61 58 57 58 59 59 59 60 61 63 63 62 63 63 65 67 68 67 65 63 63 62 62 62 61 60 58 57 58 58 58 59 61 61 62 63 64 63 62 61 64 66 68 70 70 71
69 70 69 70 75 76 73 72 74 75 75 75 75 75 76 76 77 77 77 76 77 79 78 78 80 79 71 65 62 61 61 61 59 54 52 53 54 56 58 58 57 56 57 59 60 60 60 59 59 61 61 61 61 62 65 68 68 66 64 62 61 62 62 61 60 58 55 54 54 55 56 58 59 59 59 60 61 62 63 66 68 69 70 70 70 72
75 74 72 74 80 82 78 76 75 74 73 75 79 81 78 74 74 74 74 74 74 74 76 76 75 71 64 59 58 59 59 59 56 53 54 56 57 58 59 58 58 60 61 62 62 62 62 61 60 60 60 61 61 63 65 67 65 62 61 60 60 60 59 57 55 53 52 51 52 53 56 57 57 57 57 60 64 65 67 68 69 69 68 68 70 73
81 76 71 70 74 77 75 73 71 70 70 72 72 68 62 61 64 68 70 70 66 65 67 68 66 62 57 56 58 59 58 56 54 56 60 60 60 61 61 60 59 61 62 63 63 63 63 62 60 59 59 60 60 62 63 64 63 62 60 59 58 56 53 52 51 51 50 51 52 55 57 58 59 60 62 66 68 68 68 68 68 68 67 69 72 73
85 82 78 75 76 75 73 72 74 76 74 70 63 55 51 56 63 67 68 64 59 59 60 59 59 58 57 59 62 62 59 56 58 61 62 60 60 61 61 59 58 59 60 60 59 59 58 57 57 56 57 58 59 60 61 62 62 61 60 58 55 53 51 50 50 51 51 52 54 57 58 61 63 65 68 70 69 69 69 69 68 67 66 68 72 73
89 87 87 86 87 86 85 87 88 85 78 73 67 60 58 60 62 65 67 63 59 57 57 56 57 58 60 62 62 60 59 58 59 59 55 55 58 60 59 58 57 58 58 56 53 52 51 50 51 51 53 55 57 58 59 60 60 60 59 57 55 53 51 51 52 53 55 56 59 60 61 62 64 66 68 69 68 69 69 67 66 66 66 68 70 72
90 90 90 92 95 95 96 98 99 95 91 85 74 65 63 63 62 64 70 70 65 60 59 60 61 61 59 57 57 59 61 61 62 59 53 53 58 60 59 59 58 58 57 54 52 51 50 49 49 49 52 55 55 56 57 58 59 59 59 58 57 55 54 56 57 58 60 61 63 64 64 63 62 63 64 65 65 66 66 64 65 68 70 70 70 70
90 91 91 93 95 96 96 97 99 100 103 98 83 70 66 67 66 68 78 85 78 66 61 62 63 62 61 62 65 67 65 65 70 68 61 58 61 63 60 59 60 60 59 56 54 54 56 57 57 55 54 55 56 58 59 60 61 62 61 61 61 61 62 62 61 61 61 62 65 67 67 65 64 62 62 62 62 63 63 63 66 71 73 71 69 68
89 91 92 93 95 93 92 93 95 98 101 100 93 85 79 77 76 80 94 102 92 74 66 66 69 73 76 79 80 74 66 69 76 76 70 66 67 69 67 66 66 66 65 64 63 63 64 64 63 60 58 59 61 63 64 64 65 65 65 65 67 68 67 63 61 60 61 64 68 70 68 67 66 64 64 64 64 63 63 64 67 72 72 68 66 67
86 86 88 91 94 93 91 92 94 97 99 99 96 92 88 85 84 92 106 110 97 84 80 81 84 88 89 86 81 73 69 73 77 76 71 68 70 73 73 73 74 75 74 72 70 69 68 66 64 63 63 64 66 67 66 66 66 66 66 67 68 68 65 62 60 59 61 65 69 69 66 64 65 66 67 67 68 67 66 65 68 71 70 66 65 67
85 83 84 86 89 91 92 95 98 99 99 97 94 92 90 89 92 101 107 104 96 92 92 91 91 91 87 81 73 69 71 74 73 70 68 67 70 73 73 73 74 73 71 69 68 67 66 65 65 65 65 65 66 66 66 66 66 66 66 67 68 66 63 60 59 59 64 69 69 66 64 64 65 66 67 68 69 68 66 65 68 70 69 66 65 68
84 83 83 84 85 87 90 93 96 98 98 94 89 87 87 91 96 101 100 96 91 89 88 86 85 83 79 73 66 65 69 69 67 66 66 67 69 72 72 71 69 66 63 62 62 62 63 63 64 65 66 66 67 68 68 67 67 67 67 67 67 65 62 59 59 63 69 71 68 64 64 64 64 65 65 65 64 63 63 66 69 69 67 66 67 70
86 86 87 89 90 90 92 93 95 97 96 90 84 82 85 89 91 91 89 86 84 80 76 74 74 71 68 63 58 58 62 65 65 65 66 67 68 70 71 70 69 67 65 64 64 65 66 67 67 67 68 69 69 68 67 66 67 68 69 68 66 63 61 61 63 69 73 72 67 64 64 65 65 63 61 59 59 61 64 68 68 66 66 66 68 72
92 91 93 95 94 94 96 98 98 97 94 89 86 86 87 86 83 79 77 77 77 75 73 72 72 71 68 65 62 60 61 63 63 63 64 65 66 67 69 70 70 70 70 69 68 68 68 67 67 68 69 69 69 67 66 67 68 69 69 67 64 62 62 64 69 75 75 70 66 65 65 64 63 60 57 58 61 64 66 65 64 64 65 66 70 72
95 95 96 98 98 99 101 101 99 95 90 86 85 83 82 80 79 77 77 77 76 76 76 75 75 73 71 70 71 69 67 65 65 65 65 66 67 68 69 70 70 71 71 72 72 72 70 68 66 66 66 65 64 64 63 63 65 66 65 64 63 65 67 72 76 76 71 67 65 65 64 62 60 58 56 59 64 66 64 62 62 63 64 68 71 70
78 77 76 77 80 83 84 83 83 81 78 76 77 76 74 73 73 72 73 73 71 69 67 67 67 67 66 69 72 73 72 71 70 71 72 73 74 74 75 75 76 75 74 74 73 72 70 68 66 63 60 60 61 63 65 68 70 71 71 72 73 75 77 78 77 71 67 66 65 64 63 61 59 58 58 61 65 65 62 60 60 62 65 69 69 66
79 75 74 74 76 77 78 79 79 77 74 73 72 70 69 68 69 69 69 68 66 64 62 62 62 63 64 66 67 68 69 69 69 71 73 74 75 76 77 77 76 75 72 71 69 67 67 66 64 62 60 63 69 76 82 85 85 84 82 81 80 80 78 77 73 68 66 65 63 61 62 62 62 61 60 62 65 65 62 61 61 64 67 69 66 63
92 91 90 90 90 89 86 85 82 78 75 74 73 72 73 75 76 76 74 72 70 69 68 68 68 68 67 65 65 67 68 68 67 66 67 67 67 69 71 71 70 69 67 65 64 63 64 65 65 66 70 78 85 90 91 90 88 86 84 81 79 77 75 72 70 68 66 64 61 61 62 64 64 63 61 62 64 65 65 65 65 66 68 67 64 63
99 101 102 101 100 96 92 89 88 85 84 82 82 82 83 83 83 82 81 81 82 80 78 78 77 77 77 76 75 76 77 76 74 71 68 66 65 65 66 66 65 65 64 63 64 67 70 73 76 79 84 89 91 91 89 86 84 83 80 77 75 73 71 69 69 67 64 61 60 61 64 67 67 64 61 60 63 66 68 69 69 68 68 66 62 60
88 93 97 98 101 103 102 100 100 101 100 98 96 94 93 92 92 92 92 92 92 89 88 87 87 87 88 89 87 85 83 83 82 79 75 72 68 65 64 62 62 64 67 71 77 81 84 86 88 89 91 90 89 87 85 83 80 78 76 74 73 72 71 71 69 65 61 60 62 64 68 70 68 63 61 62 65 68 70 72 72 70 67 63 59 56
87 87 89 90 94 101 105 105 104 106 108 108 107 105 102 101 102 103 101 99 97 95 95 95 95 94 95 94 93 90 88 87 85 83 80 76 72 71 71 72 75 78 81 85 89 91 92 93 93 93 92 90 88 86 84 82 79 77 75 75 75 75 75 73 69 63 60 61 63 65 69 69 65 62 62 65 67 67 67 69 71 70 65 60 55 52
Wind_Direction
281 279 279 284 288 285 281 280 280 280 280 281 282 282 282 283 284 285 284 284 285 283 282 284 284 284 285 284 284 282 280 281 283 283 282 285 288 288 290 291 292 293 292 291 291 292 293 293 292 290 289 289 288 287 288 289 290 291 292 292 293 294 294 295 295 294 293 291 291 290 289 289 289 289 289 288 288 287 286 285 283 282 281 280 280 280
279 278 283 288 285 281 280 280 280 280 280 280 281 281 281 282 284 284 282 282 282 281 282 283 283 283 285 285 285 283 282 281 282 283 285 286 286 287 289 290 291 291 289 289 290 291 291 291 289 288 287 287 286 286 287 289 290 291 292 293 293 294 294 295 295 294 293 292 292 291 291 291 290 290 291 291 290 289 288 287 285 283 282 281 281 280
279 280 287 287 281 280 279 279 280 281 281 281 282 281 281 283 285 283 281 281 281 281 283 283 282 283 285 285 284 283 284 283 283 284 286 286 287 289 289 289 289 288 287 287 288 289 289 288 287 286 286 285 284 285 286 288 289 291 293 294 294 294 294 294 294 293 293 293 293 292 291 291 290 291 292 292 292 291 289 288 286 285 283 282 281 280
279 282 286 283 280 280 279 279 281 282 282 282 281 281 282 285 285 282 281 281 281 281 282 284 283 283 284 284 283 284 283 284 288 288 285 286 288 289 290 289 287 286 286 287 287 288 287 285 284 284 283 283 283 284 286 287 290 292 294 294 294 294 294 293 293 293 293 293 292 292 291 290 290 291 291 291 291 291 290 289 288 286 284 283 281 280
278 281 283 281 280 280 280 279 280 281 281 280 280 281 285 286 284 282 283 284 283 282 283 286 286 284 285 284 283 284 282 283 288 287 285 287 288 288 289 288 287 286 286 286 287 288 285 283 283 283 283 283 284 285 286 288 291 293 294 294 293 293 293 293 294 294 293 293 293 292 292 291 291 291 291 290 290 291 291 290 289 288 286 284 282 281
277 279 282 281 280 279 278 278 278 280 282 281 280 282 284 284 282 283 285 285 285 285 285 287 287 287 288 287 286 284 282 283 283 284 290 296 296 293 291 289 288 287 286 286 289 289 286 285 284 284 283 283 284 285 287 289 291 293 293 293 293 292 293 293 294 293 293 293 292 292 292 292 292 292 291 291 291 291 291 291 291 290 288 286 284 282
276 279 280 279 278 277 276 277 279 280 281 281 281 283 283 282 282 283 285 285 285 287 287 287 287 289 291 291 291 290 286 283 281 283 293 299 299 298 297 294 291 290 288 288 290 287 284 284 283 282 282 282 283 285 287 289 291 292 292 293 293 293 293 293 293 292 291 291 291 292 292 293 292 291 290 290 291 292 292 292 292 291 290 288 286 285
275 277 277 276 276 275 275 278 280 279 278 279 281 283 281 281 281 282 283 284 285 286 286 285 286 291 294 295 296 293 288 286 286 290 295 297 297 296 296 295 292 291 289 289 288 283 280 279 279 279 280 281 283 284 286 288 290 291 292 293 293 294 294 293 292 290 290 289 289 291 291 291 290 289 289 290 291 291 292 292 292 291 291 289 288 287
274 274 274 274 274 274 276 278 278 277 277 278 280 280 280 280 280 281 282 282 283 284 283 284 288 290 293 296 294 290 288 289 291 294 296 299 299 295 293 292 290 289 287 285 282 279 276 276 277 278 280 281 283 285 287 288 289 291 292 293 294 294 293 292 292 290 288 287 288 290 290 289 289 289 289 290 291 292 292 292 292 292 292 291 289 288
272 273 273 272 272 274 275 276 276 276 275 276 277 278 279 279 280 280 280 280 281 280 282 288 292 292 292 292 289 288 291 292 293 295 297 301 301 295 293 294 292 290 287 283 279 277 277 278 280 281 282 283 284 286 287 288 290 291 292 293 293 291 291 293 292 288 286 287 288 289 288 288 288 288 289 291 292 293 294 295 295 294 294 292 290 288
270 271 271 271 272 274 273 273 273 273 274 275 276 277 278 279 279 278 277 277 277 279 285 290 291 290 289 289 289 291 294 295 296 297 298 302 300 293 291 292 294 295 290 286 283 281 282 283 283 283 283 284 285 286 287 289 291 292 292 292 291 289 291 293 290 286 287 288 287 287 287 287 287 288 290 292 294 295 296 297 296 296 295 293 291 289
269 269 270 271 271 271 271 272 271 272 273 274 275 276 277 277 276 275 275 274 276 281 288 289 287 286 284 285 289 292 294 297 298 297 298 302 300 293 289 290 293 295 292 290 287 285 284 284 283 283 282 283 284 286 288 291 293 292 291 290 288 290 292 290 287 286 287 287 287 287 287 286 287 290 292 294 295 296 296 296 296 296 295 293 292 291
268 268 268 269 268 269 271 272 272 272 272 273 273 273 273 274 274 274 274 275 277 282 285 285 284 283 282 284 287 289 293 295 294 294 299 304 300 294 293 294 296 295 292 290 288 285 284 283 282 282 281 282 284 286 289 291 292 290 289 287 288 290 291 288 286 286 286 287 287 287 286 286 288 291 293 294 295 296 296 296 295 295 294 294 293 293
268 267 266 267 268 270 271 271 271 271 270 270 270 269 269 270 271 272 275 279 281 281 282 282 281 281 283 286 288 289 290 288 288 292 298 302 300 298 297 297 296 293 291 289 287 286 284 283 283 282 282 283 285 287 289 290 289 288 286 287 290 292 290 288 287 286 286 286 285 285 285 287 289 291 293 294 294 295 295 294 294 294 294 295 295 294
273 270 268 268 268 268 269 269 270 269 269 267 267 267 267 267 269 272 277 280 279 280 280 280 280 282 286 289 290 290 288 286 288 293 298 300 300 301 300 297 292 289 289 288 287 285 283 283 283 283 283 284 286 288 289 289 287 287 287 289 294 294 290 288 286 285 285 284 283 283 285 287 289 291 292 293 293 293 293 293 293 294 295 295 296 296
275 272 270 270 269 267 266 266 267 268 268 267 267 266 267 270 272 274 275 276 277 278 279 279 280 284 287 289 289 288 287 289 291 295 297 299 301 301 299 295 290 287 286 285 284 282 282 282 282 282 283 284 287 289 291 290 289 289 289 292 295 293 288 286 285 285 284 282 281 282 284 286 288 290 291 291 291 291 291 292 292 294 295 295 295 296
273 270 268 269 269 267 266 265 265 266 266 267 267 268 270 273 273 273 273 274 275 277 277 280 282 285 287 287 286 286 288 290 292 295 297 300 304 302 297 293 290 287 285 283 282 281 280 280 280 281 282 284 287 290 291 291 290 290 290 292 294 291 287 285 285 284 282 281 282 283 284 286 288 289 289 290 290 290 290 291 292 293 294 294 294 294
271 269 267 268 269 268 268 267 265 265 264 265 267 269 271 272 271 272 273 274 275 276 277 278 281 283 285 285 286 289 290 290 291 293 297 303 305 301 296 293 290 288 286 284 282 281 280 280 280 281 283 285 288 290 292 292 293 293 292 293 293 289 286 286 285 283 282 282 283 284 286 287 288 288 289 289 289 289 289 290 291 292 292 292 291 292
270 269 267 267 268 268 267 267 266 264 265 266 269 270 271 271 271 271 272 273 274 276 277 278 279 281 281 282 286 289 289 289 290 293 299 304 302 297 295 292 288 287 285 284 283 282 280 280 279 281 283 286 289 291 293 295 296 296 294 294 293 290 287 286 285 282 281 282 284 285 287 288 288 288 289 289 289 288 289 290 291 291 290 290 290 291
272 271 269 268 269 268 267 266 266 266 269 270 270 270 269 270 270 270 271 273 274 274 276 278 280 280 280 282 283 283 284 286 289 295 302 302 299 296 293 290 287 285 283 282 282 280 277 277 278 281 283 287 290 292 294 296 297 297 295 294 293 289 287 286 284 283 282 283 285 286 288 289 289 289 289 289 289 289 289 290 290 290 289 289 290 291
272 272 273 273 271 269 268 269 270 271 271 270 269 269 269 269 270 271 272 273 273 273 275 278 280 280 280 281 281 281 283 286 291 297 300 299 297 295 291 289 288 285 283 282 280 277 275 276 279 281 284 287 290 292 294 295 296 295 294 293 292 288 286 286 286 284 284 285 286 287 289 290 290 290 290 290 289 289 290 290 290 289 289 290 290 290
272 272 272 271 270 270 271 273 273 271 269 269 269 269 270 271 272 272 272 273 273 274 277 279 278 277 279 280 282 284 287 291 295 297 297 296 294 291 289 288 287 286 285 283 280 278 278 279 281 283 285 288 290 292 293 294 294 294 292 291 291 288 287 287 286 285 285 286 288 289 291 291 290 290 290 290 290 290 290 290 289 290 290 290 290 289
272 272 271 271 271 271 271 270 269 268 268 267 267 267 269 270 270 271 272 274 275 276 277 276 274 274 279 281 283 286 290 293 295 295 295 296 293 289 287 287 286 286 284 282 282 283 282 282 282 283 286 288 290 291 292 293 293 292 290 290 290 287 286 287 286 286 286 287 289 291 291 291 290 291 291 292 292 291 290 290 290 290 291 290 289 288
274 272 271 272 271 270 269 268 268 267 267 266 268 270 271 271 271 271 272 274 274 272 273 271 270 273 280 282 283 286 290 291 291 291 293 294 292 290 289 289 288 285 283 284 285 286 285 284 283 284 286 288 289 290 291 292 292 290 288 288 288 286 285 286 286 286 286 288 290 291 290 290 290 291 292 293 292 291 290 290 290 290 290 289 288 288
272 271 271 271 270 269 268 269 269 270 270 271 273 273 272 272 272 271 272 273 271 270 270 268 268 274 281 282 283 286 288 287 286 288 289 290 290 290 290 290 287 285 286 288 289 288 288 286 285 287 288 289 289 289 290 291 291 289 286 285 285 284 285 286 286 287 288 290 291 290 289 289 290 292 293 293 292 291 290 290 290 290 289 289 288 288
269 269 270 269 269 269 269 270 272 274 274 273 272 271 270 270 269 270 270 269 270 272 271 268 271 279 283 283 284 285 285 284 284 285 287 287 288 288 287 286 287 287 289 289 288 288 287 287 287 288 288 288 288 288 290 291 291 288 284 283 284 284 285 286 287 288 289 290 290 288 287 289 291 293 293 292 292 291 291 290 290 290 289 289 289 289
268 268 269 270 271 271 271 272 273 273 272 271 271 270 269 268 268 268 267 267 271 274 272 271 276 281 282 282 284 284 283 284 285 286 287 286 285 284 284 286 287 288 287 285 283 283 284 285 286 287 287 288 287 289 291 291 290 287 283 281 283 284 284 285 286 287 288 289 288 287 287 290 292 292 292 291 291 291 291 290 290 290 289 289 289 290
268 269 270 271 272 272 273 273 272 271 271 271 271 269 268 268 267 266 267 271 274 273 271 274 280 281 282 284 285 284 285 287 287 285 283 282 281 284 286 286 285 284 281 279 278 281 284 285 285 286 287 288 288 288 290 289 287 285 282 281 282 282 282 284 285 286 287 288 287 286 289 291 292 292 291 291 291 291 290 290 289 289 289 289 289 291
269 269 269 270 270 270 270 270 269 268 268 268 269 269 269 268 268 269 271 273 272 270 273 279 282 281 282 285 285 286 288 286 283 280 279 280 283 285 285 282 281 280 278 277 278 283 286 286 286 287 287 287 287 287 288 287 285 283 280 279 280 281 281 283 284 285 287 287 286 288 290 291 292 292 292 291 291 290 289 288 288 288 288 288 291 294
269 271 271 271 271 270 269 269 268 267 266 265 265 266 266 267 269 271 271 271 272 274 279 283 283 281 282 283 285 287 287 283 280 280 282 285 285 283 280 278 278 277 277 280 283 286 287 286 286 287 286 286 285 285 286 285 283 281 279 279 280 281 281 282 283 285 286 285 286 288 290 291 293 293 292 291 290 288 287 287 287 288 288 290 294 295
271 273 273 273 273 271 270 270 270 269 269 268 266 264 264 265 268 270 271 274 277 279 281 281 279 279 281 283 285 285 284 282 282 284 284 283 280 278 277 278 280 281 282 285 286 286 286 286 287 287 286 285 284 283 283 282 281 279 278 279 279 280 281 282 283 284 284 284 286 288 291 293 294 293 292 290 289 287 287 287 288 289 289 291 294 294
270 272 273 273 273 272 272 273 273 273 272 268 266 267 268 270 273 273 275 277 277 276 276 275 275 277 281 283 283 282 283 284 285 284 281 278 276 277 278 282 286 288 287 286 285 285 286 287 287 285 284 283 281 281 281 280 278 278 278 278 279 280 281 282 282 283 284 285 288 291 293 294 294 293 291 290 289 289 288 288 289 289 289 291 292 293
269 272 274 275 274 274 274 274 274 272 267 263 267 272 273 273 273 272 272 273 272 272 272 271 273 277 280 281 280 281 284 285 284 283 281 280 281 282 285 288 289 288 286 284 283 284 285 285 284 282 281 280 279 279 279 279 278 279 279 279 278 279 279 280 280 282 284 288 291 294 295 294 291 289 288 288 291 291 290 289 288 287 288 290 292 293
268 269 272 273 273 274 274 273 270 266 262 263 269 272 267 264 265 266 267 267 266 267 268 271 273 274 276 277 279 282 284 282 281 281 282 283 285 286 287 286 285 283 282 281 282 282 282 281 280 279 278 277 277 278 279 279 279 279 278 277 276 275 275 277 279 282 286 291 294 295 294 291 288 286 285 286 290 291 291 289 286 286 289 292 293 292
268 268 267 269 271 273 273 272 268 264 264 267 267 262 259 261 263 264 263 263 263 263 265 269 272 272 273 276 280 282 282 281 281 281 283 288 288 283 279 279 279 279 278 277 278 277 277 277 276 276 276 276 277 278 278 278 277 276 275 273 272 272 273 276 280 285 290 295 297 296 293 290 287 285 285 286 288 290 290 287 285 287 291 292 292 291
269 269 268 268 269 271 272 272 270 269 270 268 264 262 266 267 267 268 267 264 263 262 263 268 272 273 274 277 278 280 282 284 284 283 288 291 284 274 272 273 274 275 274 274 274 273 274 276 277 278 279 277 276 277 276 275 274 273 273 272 272 274 276 280 284 288 293 297 300 300 297 293 289 287 286 287 289 290 288 286 287 290 290 289 289 290
270 271 271 271 271 271 271 272 273 273 272 268 264 265 269 270 270 273 272 269 264 260 261 267 270 272 275 277 279 282 286 287 284 284 289 288 277 269 270 271 271 272 272 271 272 274 277 281 282 283 283 281 278 276 274 273 273 273 273 273 274 277 280 283 286 289 293 297 301 303 301 297 292 289 289 290 290 289 287 287 291 291 289 288 289 290
269 271 271 271 271 272 272 272 272 271 271 270 268 267 267 270 272 272 273 273 268 262 262 267 270 274 278 281 283 287 288 283 280 283 286 283 275 271 271 272 272 273 271 271 274 278 282 283 283 283 282 282 281 278 275 275 275 276 277 279 280 282 284 285 287 290 293 298 303 305 303 297 294 292 291 291 291 288 287 290 292 291 290 289 289 289
267 268 268 269 269 271 271 271 270 270 272 273 274 272 271 272 272 272 274 274 270 267 269 271 274 278 281 282 284 286 282 277 279 283 283 279 275 274 274 275 275 276 275 274 276 280 283 283 283 282 280 280 280 279 279 279 279 279 281 283 283 284 284 285 288 293 297 301 304 304 300 295 292 291 291 291 291 290 290 292 293 291 290 289 288 290
268 267 265 265 267 268 269 269 268 269 272 274 277 277 276 276 273 271 272 273 274 276 277 275 276 278 281 282 282 280 276 275 278 280 279 276 274 273 273 273 274 276 277 277 278 281 284 284 283 281 280 279 279 280 281 280 279 279 281 282 282 282 283 285 290 295 299 302 303 301 297 292 290 290 290 291 292 293 293 293 292 290 288 287 288 291
268 266 264 264 265 266 267 268 268 269 271 273 276 277 278 278 274 270 272 276 279 280 279 277 277 278 280 281 280 276 275 276 276 276 275 273 272 271 271 272 273 275 277 278 280 281 282 281 280 278 278 280 280 281 280 278 278 278 280 281 282 283 284 287 291 296 299 302 303 300 295 292 289 289 290 291 292 292 292 292 290 289 286 285 288 292
265 264 264 264 265 266 267 268 270 270 271 273 276 278 277 276 274 274 277 280 281 280 280 280 279 279 280 281 280 277 274 272 270 270 270 270 269 269 271 273 275 277 277 278 279 279 277 277 276 275 276 278 280 279 277 277 277 277 279 281 281 281 283 286 290 296 301 303 302 299 295 292 291 291 291 291 292 293 293 291 288 286 285 284 287 292
265 264 263 264 265 267 268 268 269 271 276 279 281 279 276 275 276 278 281 282 281 282 284 283 281 280 279 278 276 273 268 265 264 266 266 266 266 267 270 272 274 276 277 277 277 277 277 277 276 275 276 277 276 275 274 274 275 277 279 280 279 279 281 284 290 298 302 303 300 298 295 293 292 292 291 293 295 295 293 289 286 285 286 286 288 292
263 263 264 265 266 266 266 267 269 273 278 281 279 277 275 276 277 278 279 280 280 280 280 280 278 278 278 276 273 269 266 263 263 263 263 262 263 265 268 270 271 273 275 276 278 279 279 277 276 276 276 274 274 272 272 273 275 275 277 278 278 279 281 286 293 299 301 299 298 297 294 292 291 290 292 296 297 293 290 287 285 287 289 289 290 292
265 265 266 267 267 267 267 268 271 274 275 275 275 275 275 276 276 276 276 276 275 275 274 274 275 275 275 273 271 268 266 264 263 263 264 265 266 267 268 269 269 271 273 277 279 279 277 275 274 273 273 272 272 271 271 273 274 276 279 281 283 285 287 291 296 297 297 296 296 295 294 292 290 290 292 296 294 289 287 287 288 289 291 290 290 293
264 265 266 265 265 266 267 269 270 271 271 271 272 273 274 274 274 274 274 273 272 270 269 268 269 269 269 269 269 269 267 266 266 266 267 269 269 268 269 269 270 271 273 276 277 277 275 273 271 269 269 270 272 276 280 283 284 285 286 287 288 290 291 293 295 294 294 294 294 294 294 292 290 290 291 293 292 288 286 288 290 290 289 288 290 293
258 259 259 259 261 263 266 267 269 270 271 271 271 270 270 270 270 271 273 273 271 268 266 266 268 269 270 270 269 268 268 269 271 271 271 270 270 269 269 268 269 270 272 273 273 272 270 269 268 268 271 276 282 286 289 290 289 288 288 289 289 290 291 292 292 292 292 293 293 294 294 292 290 289 289 291 292 288 284 286 291 289 286 286 290 293
257 256 256 257 259 260 262 264 266 267 267 267 266 265 266 267 268 270 271 270 269 269 269 270 272 273 273 271 269 270 272 274 276 275 272 269 268 266 265 265 265 266 267 268 269 269 268 269 270 273 279 285 289 290 291 290 290 289 289 290 290 290 290 290 290 290 291 292 292 294 294 292 289 287 287 290 292 289 285 285 288 287 284 285 288 290
259 258 258 258 258 258 258 260 261 262 262 262 262 263 265 266 267 268 268 268 268 269 269 271 272 273 273 272 272 274 276 276 277 276 271 266 263 261 260 260 260 261 263 265 268 271 272 273 275 277 281 285 287 288 288 288 288 288 288 289 288 288 287 287 288 289 290 291 291 293 294 292 287 284 286 289 291 290 286 284 285 285 284 283 284 287
255 257 258 260 261 261 260 260 261 262 261 260 260 261 263 265 266 267 267 268 268 268 269 270 270 271 272 273 273 274 274 274 275 275 271 264 260 258 257 258 260 263 266 270 272 274 275 276 277 279 281 283 284 285 285 284 284 285 286 286 286 286 286 286 286 287 288 289 291 293 293 290 286 283 285 288 290 289 288 286 284 283 282 281 282 286
249 252 255 258 260 263 263 263 263 263 264 263 262 262 263 264 265 265 265 266 266 267 267 268 269 270 271 271 272 272 272 272 272 272 268 262 259 259 261 263 265 268 270 272 274 275 276 277 278 280 282 283 283 282 282 282 283 283 284 284 285 285 285 285 284 284 286 289 290 292 292 289 285 282 283 286 287 289 291 290 287 283 281 282 283 286
Height
5820 5816 5818 5823 5824 5822 5818 5817 5816 5815 5814 5813 5812 5811 5809 5808 5809 5811 5806 5803 5803 5796 5796 5798 5793 5795 5800 5802 5805 5806 5803 5802 5802 5802 5801 5800 5797 5796 5794 5791 5790 5789 5787 5784 5782 5781 5779 5777 5776 5774 5772 5771 5770 5769 5767 5767 5766 5764 5764 5763 5762 5761 5760 5759 5757 5756 5754 5753 5752 5751 5750 5749 5747 5746 5745 5744 5743 5741 5740 5739 5738 5737 5736 5735 5734 5734
5814 5810 5815 5821 5819 5816 5814 5812 5811 5810 5809 5808 5807 5806 5804 5804 5804 5804 5801 5799 5798 5790 5790 5792 5787 5788 5794 5796 5799 5800 5798 5797 5798 5797 5796 5796 5793 5791 5790 5788 5786 5784 5782 5780 5778 5777 5775 5773 5771 5769 5768 5766 5765 5764 5763 5762 5761 5760 5759 5758 5757 5756 5755 5753 5752 5751 5749 5747 5746 5745 5744 5742 5741 5740 5739 5737 5736 5734 5733 5732 5731 5730 5729 5728 5727 5727
5806 5807 5814 5816 5812 5811 5810 5808 5807 5805 5804 5803 5802 5800 5799 5801 5800 5797 5795 5795 5793 5786 5785 5785 5781 5782 5789 5790 5792 5795 5793 5791 5793 5793 5792 5791 5789 5787 5785 5784 5782 5780 5777 5775 5774 5773 5771 5769 5767 5765 5763 5761 5760 5759 5758 5757 5756 5755 5754 5753 5751 5750 5749 5748 5747 5745 5743 5742 5740 5739 5737 5736 5735 5734 5732 5731 5729 5728 5726 5725 5724 5723 5722 5721 5720 5719
5800 5804 5810 5810 5807 5806 5805 5804 5803 5801 5799 5798 5797 5795 5794 5797 5795 5790 5789 5789 5787 5782 5779 5779 5774 5775 5783 5784 5786 5790 5788 5786 5787 5788 5788 5787 5785 5782 5780 5779 5777 5776 5773 5770 5769 5769 5767 5764 5762 5760 5758 5756 5755 5753 5752 5751 5751 5749 5748 5747 5746 5745 5744 5743 5741 5740 5738 5736 5734 5732 5731 5729 5728 5727 5726 5724 5723 5721 5720 5718 5717 5716 5715 5714 5713 5712
5796 5800 5804 5804 5803 5802 5800 5799 5799 5797 5794 5792 5792 5792 5791 5792 5789 5784 5783 5783 5781 5777 5775 5774 5766 5765 5776 5778 5780 5784 5783 5783 5783 5781 5782 5783 5782 5779 5776 5774 5772 5770 5769 5766 5765 5764 5762 5759 5757 5755 5753 5751 5749 5747 5746 5746 5745 5744 5743 5741 5740 5739 5738 5737 5736 5734 5732 5730 5728 5726 5725 5723 5722 5721 5719 5718 5716 5715 5713 5711 5710 5708 5707 5706 5705 5705
5791 5796 5798 5798 5797 5797 5794 5793 5795 5794 5789 5785 5786 5789 5789 5786 5783 5780 5779 5777 5774 5770 5770 5771 5762 5757 5766 5771 5773 5778 5779 5779 5779 5776 5775 5776 5774 5772 5771 5769 5766 5765 5763 5761 5760 5759 5756 5754 5751 5750 5748 5746 5744 5742 5741 5740 5740 5738 5737 5736 5735 5734 5733 5732 5730 5728 5726 5724 5722 5720 5718 5717 5715 5714 5713 5711 5709 5708 5706 5704 5703 5701 5700 5699 5698 5697
5787 5792 5793 5792 5791 5791 5789 5788 5791 5791 5785 5779 5780 5785 5784 5781 5778 5776 5774 5771 5768 5765 5762 5764 5761 5754 5755 5762 5765 5768 5771 5772 5774 5774 5773 5770 5766 5764 5764 5763 5760 5759 5758 5756 5756 5755 5752 5749 5747 5745 5743 5741 5739 5738 5736 5735 5734 5733 5732 5731 5729 5729 5727 5726 5724 5722 5720 5718 5716 5714 5712 5711 5709 5708 5706 5704 5703 5701 5699 5697 5695 5694 5693 5692 5691 5690
5784 5788 5787 5786 5785 5784 5783 5784 5786 5785 5780 5775 5775 5778 5778 5776 5774 5771 5770 5767 5763 5762 5756 5754 5760 5755 5747 5751 5757 5757 5760 5763 5766 5769 5770 5768 5764 5758 5757 5757 5755 5753 5753 5752 5752 5751 5748 5746 5744 5741 5739 5737 5735 5733 5731 5730 5729 5727 5726 5725 5724 5723 5722 5721 5719 5716 5714 5712 5710 5708 5706 5705 5703 5701 5699 5698 5696 5694 5692 5690 5688 5687 5686 5685 5684 5683
5779 5781 5781 5780 5779 5778 5779 5780 5780 5778 5775 5772 5771 5771 5771 5770 5769 5767 5764 5762 5759 5756 5750 5748 5756 5753 5742 5743 5746 5745 5750 5755 5759 5762 5763 5763 5761 5755 5751 5750 5750 5750 5748 5749 5747 5746 5744 5741 5739 5737 5734 5733 5730 5728 5726 5724 5723 5722 5721 5720 5719 5718 5717 5715 5713 5711 5708 5706 5704 5702 5700 5698 5696 5694 5693 5691 5689 5687 5685 5683 5682 5680 5679 5678 5676 5675
5772 5773 5775 5773 5773 5774 5775 5774 5773 5772 5770 5768 5766 5765 5765 5764 5763 5762 5758 5756 5756 5749 5744 5746 5751 5747 5737 5735 5736 5735 5741 5747 5751 5755 5756 5757 5756 5751 5746 5742 5743 5745 5744 5744 5743 5740 5739 5736 5734 5731 5729 5726 5724 5722 5720 5718 5717 5716 5716 5715 5714 5713 5711 5710 5708 5704 5702 5700 5698 5696 5694 5692 5690 5688 5687 5685 5683 5680 5678 5676 5674 5673 5672 5671 5670 5668
5767 5767 5767 5767 5769 5769 5768 5768 5767 5766 5764 5763 5762 5759 5759 5757 5756 5755 5751 5750 5749 5742 5741 5746 5747 5743 5731 5725 5728 5729 5733 5737 5741 5747 5749 5751 5751 5748 5744 5738 5736 5738 5738 5738 5737 5735 5733 5731 5728 5725 5722 5720 5718 5716 5714 5712 5712 5710 5710 5709 5708 5707 5706 5704 5701 5698 5696 5694 5692 5690 5688 5686 5684 5682 5680 5678 5676 5673 5672 5669 5668 5666 5665 5664 5662 5661
5761 5760 5761 5762 5764 5763 5762 5762 5762 5761 5760 5758 5757 5755 5753 5751 5748 5747 5744 5744 5742 5737 5739 5740 5740 5737 5726 5720 5725 5725 5726 5728 5731 5736 5741 5745 5745 5743 5741 5736 5732 5732 5731 5730 5730 5728 5726 5724 5721 5719 5716 5714 5712 5710 5708 5706 5705 5704 5703 5703 5702 5701 5700 5698 5695 5692 5690 5688 5686 5684 5682 5680 5678 5676 5673 5671 5669 5666 5665 5663 5661 5659 5657 5656 5655 5653
5754 5754 5755 5755 5756 5757 5757 5756 5755 5755 5755 5753 5752 5750 5747 5744 5741 5738 5736 5737 5738 5735 5735 5734 5731 5725 5717 5718 5724 5723 5724 5724 5722 5727 5734 5738 5738 5737 5735 5731 5728 5726 5724 5723 5722 5720 5718 5716 5714 5712 5709 5707 5705 5703 5702 5700 5699 5697 5696 5696 5696 5695 5694 5692 5689 5686 5684 5682 5679 5677 5675 5673 5670 5668 5666 5663 5662 5659 5657 5656 5653 5652 5650 5648 5647 5645
5745 5746 5749 5748 5750 5752 5751 5749 5749 5748 5748 5747 5745 5743 5741 5739 5734 5731 5732 5732 5731 5729 5728 5726 5722 5714 5709 5715 5720 5720 5721 5719 5716 5722 5728 5731 5731 5731 5730 5727 5723 5720 5716 5715 5714 5712 5710 5708 5706 5704 5701 5699 5698 5696 5695 5694 5692 5690 5690 5689 5689 5688 5687 5685 5682 5679 5677 5674 5672 5670 5667 5665 5663 5661 5659 5656 5655 5652 5650 5649 5647 5645 5643 5641 5639 5637
5737 5738 5741 5742 5744 5745 5743 5743 5742 5740 5740 5739 5738 5736 5733 5733 5729 5728 5730 5728 5722 5721 5720 5716 5711 5707 5706 5710 5712 5712 5712 5710 5711 5718 5723 5724 5725 5724 5723 5722 5718 5713 5709 5707 5706 5704 5702 5700 5698 5695 5693 5691 5690 5689 5688 5687 5685 5684 5683 5683 5682 5681 5680 5677 5675 5672 5670 5667 5665 5663 5660 5658 5656 5654 5652 5649 5648 5646 5643 5642 5640 5638 5636 5634 5632 5630
5731 5730 5734 5733 5735 5738 5737 5737 5736 5733 5732 5730 5730 5729 5725 5728 5728 5724 5724 5721 5717 5714 5710 5707 5703 5703 5705 5705 5705 5704 5703 5703 5706 5711 5716 5718 5719 5719 5717 5715 5712 5707 5704 5701 5698 5697 5695 5693 5690 5688 5685 5684 5682 5681 5680 5679 5678 5677 5677 5677 5676 5674 5672 5670 5668 5665 5663 5661 5658 5656 5654 5651 5649 5647 5645 5643 5641 5639 5637 5635 5633 5631 5629 5627 5625 5622
5724 5723 5726 5725 5725 5729 5729 5729 5730 5727 5724 5722 5722 5722 5721 5724 5722 5717 5715 5715 5713 5707 5702 5701 5698 5698 5700 5698 5696 5698 5698 5699 5701 5704 5708 5711 5712 5711 5709 5707 5705 5701 5698 5695 5692 5690 5688 5686 5684 5681 5679 5677 5676 5675 5673 5672 5671 5671 5671 5670 5669 5667 5665 5662 5660 5658 5656 5654 5652 5649 5647 5645 5643 5641 5639 5637 5635 5632 5630 5628 5626 5624 5622 5620 5618 5615
5717 5714 5719 5718 5716 5719 5721 5721 5722 5720 5716 5715 5716 5717 5717 5716 5713 5710 5707 5707 5707 5701 5697 5698 5695 5693 5694 5689 5687 5690 5690 5691 5694 5698 5701 5704 5704 5702 5700 5699 5697 5694 5691 5688 5686 5683 5682 5680 5677 5674 5672 5670 5669 5668 5666 5665 5664 5664 5664 5663 5662 5660 5658 5655 5653 5651 5649 5647 5645 5643 5641 5639 5637 5635 5632 5630 5628 5626 5623 5621 5619 5616 5614 5612 5610 5608
5710 5706 5710 5711 5707 5710 5713 5712 5711 5710 5709 5710 5712 5712 5710 5706 5704 5704 5701 5699 5700 5696 5691 5692 5692 5688 5686 5686 5685 5684 5681 5680 5685 5692 5696 5698 5697 5694 5693 5691 5689 5687 5684 5681 5679 5677 5675 5673 5670 5668 5665 5663 5662 5660 5658 5657 5656 5657 5656 5656 5655 5653 5651 5649 5647 5645 5643 5641 5639 5636 5634 5632 5630 5628 5626 5623 5621 5619 5616 5614 5611 5609 5607 5605 5603 5601
5703 5697 5699 5704 5702 5701 5703 5703 5701 5702 5705 5704 5704 5703 5701 5698 5695 5693 5693 5694 5693 5689 5685 5686 5685 5678 5677 5683 5683 5680 5677 5675 5678 5686 5690 5690 5689 5686 5684 5682 5681 5680 5678 5675 5673 5670 5668 5666 5663 5662 5659 5656 5655 5653 5651 5650 5649 5650 5649 5648 5647 5646 5644 5642 5640 5638 5636 5634 5632 5629 5627 5625 5623 5621 5618 5616 5614 5612 5609 5607 5604 5602 5599 5597 5595 5593
5696 5690 5690 5695 5695 5693 5695 5697 5697 5698 5698 5695 5693 5692 5691 5690 5688 5684 5685 5688 5685 5681 5681 5681 5676 5668 5668 5674 5674 5672 5673 5673 5675 5682 5685 5682 5681 5678 5675 5673 5671 5671 5670 5668 5666 5664 5661 5659 5657 5655 5652 5650 5648 5646 5644 5643 5643 5642 5642 5640 5639 5638 5636 5634 5633 5631 5628 5626 5624 5622 5620 5618 5616 5614 5611 5609 5607 5604 5602 5599 5597 5594 5592 5590 5588 5586
5687 5683 5681 5683 5685 5686 5690 5693 5692 5690 5687 5684 5682 5683 5682 5683 5682 5676 5673 5677 5678 5673 5675 5675 5666 5661 5663 5666 5666 5666 5668 5668 5668 5672 5676 5676 5674 5670 5666 5665 5662 5661 5661 5659 5658 5657 5655 5653 5651 5647 5645 5643 5641 5640 5637 5636 5635 5634 5634 5633 5631 5630 5628 5626 5625 5622 5620 5619 5616 5614 5613 5611 5609 5606 5604 5602 5599 5597 5595 5592 5590 5587 5585 5582 5580 5578
5678 5673 5671 5671 5674 5680 5684 5685 5683 5679 5677 5674 5672 5674 5676 5675 5675 5669 5664 5668 5670 5665 5667 5664 5651 5651 5661 5664 5663 5663 5665 5666 5661 5660 5665 5667 5665 5662 5659 5657 5655 5653 5652 5651 5650 5650 5648 5646 5643 5639 5638 5636 5634 5632 5630 5629 5628 5626 5626 5625 5623 5621 5620 5618 5617 5615 5613 5611 5609 5607 5605 5603 5601 5599 5596 5594 5592 5589 5587 5584 5582 5579 5577 5575 5573 5571
5668 5662 5661 5661 5663 5668 5673 5674 5673 5670 5665 5662 5664 5669 5670 5666 5667 5665 5659 5660 5658 5655 5658 5651 5635 5642 5659 5662 5661 5662 5662 5663 5657 5652 5656 5657 5655 5654 5652 5650 5648 5645 5644 5643 5642 5642 5640 5637 5635 5632 5630 5629 5627 5625 5623 5621 5620 5619 5618 5618 5616 5613 5612 5611 5609 5608 5606 5604 5602 5599 5597 5595 5593 5591 5588 5586 5584 5581 5579 5576 5574 5572 5569 5567 5565 5563
5657 5652 5652 5652 5650 5653 5659 5662 5662 5661 5657 5655 5659 5663 5660 5658 5658 5655 5651 5649 5642 5642 5648 5636 5621 5635 5656 5656 5656 5660 5658 5655 5652 5649 5650 5649 5647 5646 5645 5643 5641 5637 5636 5635 5633 5632 5630 5627 5626 5624 5623 5621 5620 5618 5616 5614 5613 5612 5611 5610 5608 5606 5605 5604 5602 5600 5598 5596 5594 5592 5590 5588 5585 5583 5581 5578 5576 5573 5571 5568 5566 5564 5562 5560 5558 5556
5647 5644 5642 5642 5638 5638 5644 5651 5654 5654 5650 5648 5649 5651 5649 5650 5648 5643 5641 5637 5628 5628 5633 5624 5614 5626 5643 5647 5649 5654 5651 5646 5646 5645 5643 5642 5641 5639 5637 5634 5631 5630 5630 5628 5625 5622 5620 5619 5618 5617 5615 5614 5612 5610 5608 5607 5606 5605 5604 5603 5601 5599 5597 5596 5594 5592 5590 5588 5586 5584 5582 5580 5577 5575 5572 5570 5568 5565 5563 5560 5558 5556 5554 5552 5550 5548
5635 5634 5633 5631 5628 5627 5632 5641 5647 5645 5637 5634 5638 5639 5638 5638 5637 5634 5628 5621 5619 5618 5615 5616 5617 5616 5625 5637 5641 5644 5644 5640 5639 5639 5635 5635 5634 5631 5629 5626 5624 5624 5623 5619 5616 5614 5612 5612 5611 5609 5607 5605 5603 5602 5600 5599 5598 5597 5596 5595 5593 5591 5590 5588 5586 5584 5582 5580 5578 5576 5574 5572 5569 5567 5564 5562 5560 5557 5555 5553 5551 5548 5546 5544 5542 5539
5623 5621 5623 5622 5618 5619 5622 5628 5635 5634 5626 5623 5625 5626 5626 5625 5625 5623 5615 5612 5617 5609 5598 5610 5620 5610 5610 5624 5630 5632 5636 5633 5631 5630 5627 5626 5626 5623 5619 5617 5616 5615 5613 5609 5607 5607 5607 5606 5604 5601 5599 5597 5595 5594 5592 5591 5590 5589 5588 5587 5585 5583 5582 5580 5578 5576 5574 5572 5571 5569 5566 5564 5561 5559 5557 5554 5552 5549 5547 5545 5543 5540 5538 5536 5533 5530
5612 5607 5613 5614 5609 5610 5613 5614 5620 5622 5617 5614 5612 5612 5614 5614 5614 5613 5607 5607 5609 5598 5590 5605 5613 5604 5604 5613 5617 5621 5626 5623 5620 5619 5617 5617 5618 5615 5609 5606 5606 5604 5601 5600 5600 5600 5600 5597 5595 5593 5590 5589 5587 5585 5584 5583 5581 5580 5579 5578 5577 5575 5574 5572 5570 5569 5566 5565 5563 5561 5559 5556 5554 5551 5549 5546 5544 5541 5539 5537 5535 5532 5530 5527 5524 5521
5602 5597 5604 5605 5597 5598 5603 5604 5607 5609 5606 5605 5604 5604 5603 5603 5605 5605 5598 5598 5600 5591 5590 5598 5597 5593 5599 5606 5608 5612 5613 5611 5609 5609 5608 5608 5607 5604 5598 5594 5596 5596 5592 5591 5592 5592 5590 5588 5586 5584 5582 5580 5579 5577 5576 5574 5573 5572 5571 5569 5568 5567 5566 5564 5562 5561 5558 5557 5555 5553 5550 5548 5546 5543 5541 5538 5536 5533 5531 5529 5527 5524 5522 5519 5516 5513
5594 5591 5595 5595 5585 5584 5593 5598 5597 5597 5594 5592 5593 5595 5595 5595 5596 5596 5592 5593 5593 5587 5587 5589 5581 5579 5592 5601 5601 5601 5600 5599 5598 5599 5599 5598 5595 5592 5586 5584 5587 5588 5586 5584 5582 5581 5581 5580 5577 5575 5573 5571 5570 5569 5568 5566 5564 5563 5562 5561 5560 5559 5558 5556 5554 5552 5550 5548 5546 5544 5542 5540 5537 5535 5533 5530 5528 5526 5523 5521 5519 5516 5513 5510 5507 5504
5587 5583 5585 5586 5573 5570 5586 5590 5585 5586 5582 5575 5577 5585 5590 5591 5588 5587 5588 5588 5586 5581 5578 5576 5570 5571 5585 5594 5592 5591 5592 5590 5589 5589 5587 5584 5584 5581 5577 5576 5579 5579 5578 5575 5573 5571 5571 5571 5569 5566 5564 5563 5561 5561 5559 5557 5555 5554 5553 5553 5552 5551 5550 5548 5546 5544 5542 5540 5538 5536 5534 5531 5529 5527 5525 5523 5521 5518 5516 5513 5510 5507 5504 5502 5498 5495
5578 5574 5576 5576 5563 5560 5576 5580 5574 5573 5562 5554 5567 5583 5586 5583 5580 5578 5579 5579 5578 5574 5568 5564 5564 5569 5578 5583 5581 5582 5585 5584 5580 5577 5573 5571 5572 5570 5569 5570 5571 5569 5567 5565 5564 5564 5562 5561 5560 5558 5556 5554 5553 5552 5550 5548 5547 5546 5546 5544 5543 5542 5541 5539 5538 5536 5534 5532 5530 5528 5526 5524 5521 5519 5517 5515 5513 5510 5507 5505 5502 5499 5496 5493 5489 5485
5569 5567 5567 5565 5555 5552 5563 5570 5563 5550 5539 5547 5570 5579 5573 5570 5570 5568 5567 5569 5570 5567 5561 5557 5559 5563 5568 5571 5572 5574 5577 5576 5570 5564 5562 5563 5563 5559 5560 5563 5562 5560 5558 5556 5555 5555 5553 5552 5551 5550 5548 5546 5545 5544 5542 5540 5539 5538 5537 5536 5535 5534 5532 5530 5529 5527 5526 5524 5522 5520 5518 5516 5513 5511 5509 5506 5503 5501 5499 5496 5493 5490 5487 5484 5480 5476
5559 5559 5556 5554 5548 5543 5551 5558 5543 5526 5532 5554 5567 5565 5562 5564 5564 5559 5555 5558 5562 5561 5557 5552 5550 5554 5560 5563 5564 5566 5567 5564 5557 5552 5555 5558 5555 5549 5548 5552 5553 5551 5549 5548 5547 5546 5544 5543 5542 5541 5540 5538 5536 5536 5534 5532 5531 5530 5529 5528 5526 5525 5524 5522 5521 5519 5518 5516 5514 5512 5510 5507 5505 5502 5500 5497 5495 5492 5490 5487 5484 5481 5478 5475 5472 5468
5551 5549 5546 5544 5539 5534 5537 5536 5523 5519 5535 5548 5550 5557 5563 5562 5558 5551 5543 5547 5555 5554 5549 5546 5544 5548 5553 5555 5557 5558 5555 5548 5543 5544 5551 5553 5547 5540 5537 5540 5544 5543 5540 5539 5538 5537 5535 5535 5533 5532 5531 5530 5528 5527 5526 5524 5523 5522 5521 5520 5519 5517 5516 5514 5513 5511 5509 5507 5505 5503 5501 5498 5496 5493 5491 5489 5486 5484 5481 5478 5476 5473 5470 5466 5463 5459
5541 5538 5535 5530 5524 5524 5522 5516 5514 5517 5520 5525 5538 5557 5563 5557 5554 5548 5531 5528 5541 5545 5542 5541 5541 5543 5546 5548 5550 5550 5544 5535 5530 5536 5546 5546 5536 5530 5528 5530 5533 5534 5533 5531 5529 5528 5527 5526 5525 5525 5524 5522 5521 5519 5518 5516 5515 5514 5513 5513 5511 5509 5508 5506 5504 5502 5500 5499 5497 5494 5492 5489 5487 5484 5482 5480 5478 5475 5473 5470 5467 5464 5461 5457 5454 5451
5530 5526 5525 5517 5508 5512 5510 5502 5502 5500 5497 5511 5535 5553 5559 5553 5550 5544 5520 5504 5518 5536 5541 5540 5538 5539 5540 5539 5539 5540 5534 5522 5518 5527 5539 5538 5527 5521 5520 5522 5523 5524 5525 5524 5521 5520 5519 5517 5517 5517 5516 5515 5513 5511 5510 5508 5507 5506 5506 5505 5503 5501 5499 5498 5496 5493 5491 5490 5488 5485 5483 5480 5478 5476 5474 5472 5470 5467 5464 5462 5459 5455 5452 5448 5446 5443
5517 5514 5515 5506 5496 5500 5498 5489 5487 5483 5485 5504 5525 5539 5549 5548 5546 5536 5501 5478 5500 5531 5541 5540 5534 5530 5529 5527 5527 5529 5521 5509 5508 5519 5528 5526 5519 5515 5514 5514 5513 5513 5514 5515 5514 5512 5509 5508 5507 5507 5506 5506 5503 5501 5501 5500 5499 5498 5498 5497 5495 5492 5490 5488 5486 5484 5482 5480 5479 5477 5475 5472 5469 5467 5465 5463 5461 5459 5456 5454 5451 5447 5443 5440 5437 5435
5503 5501 5500 5493 5486 5490 5487 5477 5474 5474 5479 5495 5510 5523 5534 5538 5537 5515 5473 5465 5502 5529 5531 5529 5523 5516 5516 5517 5516 5514 5506 5498 5501 5508 5513 5512 5508 5505 5505 5504 5504 5503 5503 5504 5504 5502 5499 5498 5497 5496 5496 5495 5493 5491 5491 5490 5489 5489 5488 5487 5485 5483 5481 5478 5476 5475 5474 5472 5471 5469 5467 5464 5461 5459 5457 5454 5452 5450 5447 5445 5442 5438 5435 5432 5429 5427
5490 5487 5485 5481 5478 5480 5476 5466 5462 5464 5474 5489 5501 5511 5521 5522 5509 5484 5465 5480 5510 5513 5507 5510 5508 5504 5505 5504 5501 5499 5495 5493 5493 5495 5499 5500 5497 5494 5493 5493 5493 5493 5493 5492 5492 5490 5489 5487 5486 5485 5484 5484 5483 5483 5482 5480 5479 5479 5478 5477 5476 5474 5471 5469 5468 5467 5466 5465 5464 5461 5458 5456 5453 5450 5448 5445 5442 5440 5438 5435 5432 5429 5426 5424 5421 5419
5479 5476 5472 5470 5470 5469 5465 5459 5453 5451 5462 5484 5496 5503 5506 5495 5477 5469 5477 5493 5497 5490 5490 5494 5492 5493 5493 5489 5487 5488 5486 5485 5486 5484 5487 5489 5486 5484 5483 5481 5481 5481 5482 5482 5481 5479 5478 5476 5475 5475 5475 5474 5474 5473 5472 5470 5470 5469 5468 5467 5467 5464 5462 5460 5459 5458 5457 5456 5455 5452 5449 5446 5444 5441 5439 5436 5433 5431 5428 5426 5423 5420 5417 5415 5413 5410
5468 5466 5460 5459 5463 5462 5455 5448 5443 5441 5455 5478 5488 5486 5481 5470 5465 5472 5479 5480 5478 5478 5479 5477 5475 5478 5478 5475 5476 5476 5474 5475 5476 5475 5476 5477 5477 5475 5472 5470 5471 5470 5470 5471 5471 5469 5467 5464 5464 5465 5464 5464 5464 5462 5461 5460 5459 5459 5458 5458 5457 5455 5453 5452 5451 5449 5449 5447 5445 5443 5440 5437 5434 5432 5429 5427 5424 5422 5420 5417 5414 5411 5409 5407 5405 5402
5454 5455 5448 5447 5454 5453 5442 5434 5437 5445 5458 5468 5467 5464 5462 5460 5463 5468 5466 5463 5466 5468 5466 5462 5461 5463 5464 5464 5464 5463 5462 5464 5464 5465 5466 5465 5465 5465 5462 5460 5461 5460 5459 5460 5460 5458 5456 5454 5453 5453 5452 5453 5454 5452 5451 5450 5448 5448 5448 5448 5447 5445 5444 5443 5442 5440 5440 5438 5436 5434 5431 5428 5425 5422 5420 5418 5416 5414 5412 5409 5406 5403 5401 5399 5397 5393
5441 5444 5442 5439 5438 5436 5430 5430 5436 5445 5452 5453 5449 5448 5451 5451 5453 5455 5452 5451 5453 5453 5452 5450 5448 5448 5451 5450 5448 5448 5450 5451 5452 5454 5454 5453 5453 5453 5451 5450 5451 5451 5451 5451 5451 5449 5447 5445 5444 5443 5443 5444 5444 5443 5442 5441 5439 5439 5439 5438 5437 5436 5435 5434 5433 5432 5431 5429 5427 5424 5421 5419 5417 5414 5412 5410 5408 5406 5404 5401 5398 5395 5393 5391 5388 5385
5432 5433 5433 5429 5424 5420 5422 5426 5429 5434 5439 5441 5439 5437 5439 5440 5439 5438 5436 5436 5437 5438 5438 5435 5433 5436 5437 5434 5433 5435 5436 5438 5440 5441 5441 5442 5442 5441 5440 5440 5440 5442 5442 5442 5442 5441 5438 5436 5435 5434 5434 5435 5434 5433 5433 5432 5430 5430 5430 5429 5428 5427 5426 5425 5424 5423 5421 5419 5417 5415 5412 5410 5408 5406 5404 5402 5400 5398 5395 5393 5390 5388 5385 5382 5380 5377
5422 5422 5419 5416 5414 5412 5412 5415 5420 5424 5428 5431 5430 5427 5428 5427 5425 5424 5424 5423 5423 5423 5423 5424 5424 5425 5425 5424 5423 5423 5423 5426 5428 5428 5428 5429 5429 5429 5429 5428 5429 5431 5432 5431 5431 5430 5429 5427 5425 5425 5425 5424 5424 5423 5422 5420 5420 5420 5420 5420 5419 5418 5416 5415 5414 5413 5411 5409 5408 5406 5403 5401 5400 5398 5395 5393 5391 5389 5386 5384 5382 5379 5376 5374 5371 5369
5408 5407 5404 5403 5403 5402 5403 5406 5411 5415 5418 5420 5419 5416 5414 5411 5410 5413 5414 5412 5411 5411 5412 5413 5414 5414 5415 5416 5414 5412 5413 5416 5417 5417 5417 5416 5416 5417 5417 5417 5418 5420 5420 5421 5421 5420 5419 5418 5417 5416 5415 5414 5414 5413 5411 5409 5408 5408 5409 5409 5408 5407 5406 5405 5404 5403 5402 5400 5398 5397 5395 5393 5391 5389 5387 5384 5382 5380 5378 5376 5373 5371 5368 5365 5362 5361
5394 5391 5390 5391 5388 5389 5395 5400 5401 5400 5402 5407 5406 5400 5398 5399 5400 5401 5402 5400 5401 5402 5401 5402 5403 5402 5402 5403 5403 5403 5403 5404 5406 5408 5407 5406 5406 5406 5405 5406 5407 5408 5408 5411 5411 5410 5410 5410 5409 5408 5407 5406 5405 5404 5401 5399 5398 5398 5399 5398 5397 5396 5396 5395 5395 5394 5393 5391 5390 5388 5387 5385 5382 5380 5378 5376 5374 5371 5369 5367 5365 5362 5359 5356 5353 5352
5380 5376 5380 5381 5373 5374 5385 5391 5388 5383 5383 5388 5390 5388 5388 5390 5389 5388 5388 5388 5389 5390 5390 5390 5390 5390 5390 5390 5392 5393 5391 5392 5395 5396 5395 5394 5396 5396 5396 5396 5396 5395 5397 5399 5399 5399 5400 5400 5399 5399 5398 5398 5397 5395 5392 5390 5389 5389 5389 5388 5386 5386 5386 5385 5385 5385 5384 5382 5381 5380 5378 5375 5373 5372 5370 5367 5365 5363 5360 5359 5356 5353 5350 5347 5345 5343
5367 5366 5370 5368 5361 5362 5370 5373 5370 5367 5363 5367 5373 5376 5378 5380 5377 5373 5373 5376 5377 5379 5379 5376 5375 5376 5377 5379 5381 5381 5378 5379 5383 5384 5383 5383 5384 5385 5385 5385 5384 5384 5385 5385 5385 5386 5387 5387 5386 5387 5387 5387 5386 5383 5381 5380 5380 5380 5380 5378 5376 5376 5376 5375 5376 5375 5374 5373 5372 5370 5369 5366 5364 5363 5362 5359 5357 5355 5352 5350 5348 5345 5343 5340 5337 5336